{"data":{"norad_id":62214,"intl_designator":"2024-229Y","name":"STARLINK-32666","alt_names":[],"object_type":"PAYLOAD","status":"ACTIVE","operator":null,"country":"US","launch_date":"2024-12-04","launch_site_code":"AFETR","launch_vehicle":null,"mission":null,"orbit_class":"UNKNOWN","rcs_meters":null,"size_class":null,"mass_kg":null,"dimensions":null,"purposes":["comms"],"wikipedia_slug":null,"has_3d_model":false,"image_url":null,"decayed_at":null,"tle_current":{"epoch":"2026-09-21T22:59:58.849728Z","epoch_age_seconds":51902,"freshness":"FRESH","line1":"1 62214U 24229Y   26264.95832002  .00008791  00000+0  32855-3 0  9993","line2":"2 62214  42.9984 242.6725 0001186 274.1896  85.8820 15.27584173100571","mean_motion":15.27584173,"eccentricity":0.0001186,"inclination_deg":42.9984,"raan_deg":242.6725,"arg_perigee_deg":274.1896,"mean_anomaly_deg":85.882,"bstar":0.00032855,"rev_number":10057,"period_min":94.266491199107,"perigee_km":482.22286541584,"apogee_km":483.8503357939,"semimajor_km":6861.1736006049,"source":"CELESTRAK","updated_at":"2026-09-22T09:00:49.543639Z"}}}